Location: Helsinki
(60.1699°N, 24.9384°E)
Time: 15:16:31
(UTC+02:00)

Tiros 1 - Pass Details

Date: 03 October 2022
Orbit: 629 x 662 km, 48.4° (Epoch: 07 December)

Event Time Altitude Azimuth Distance (km) Brightness Sun altitude
Rises 01:12:42 0° 206° (SSW) 2,986 - -33.7°
Reaches altitude 10° 01:16:26 10° 176° (S) 2,074 - -33.7°
Maximum altitude 01:18:19 12° 153° (SSE) 1,926 - -33.7°
Drops below altitude 10° 01:20:11 10° 130° (SE) 2,071 - -33.6°
Sets 01:23:55 0° 100° (E) 2,979 - -33.6°
